This is the latest recevied weather packets stored in our database for station/object W0VI. If no packets are shown the sender has not sent any weather packets the latest 10 day(s).
| Time | Temp. | Humidity | Pressure | Rain* | Wind** | Luminosity | Snow |
|---|---|---|---|---|---|---|---|
| 1787497637 | 21.11° C | 65% | 1020.9 hPa | 0 mm | - | 496 W/m² | - |
| 1787497333 | 21.11° C | 66% | 1020.9 hPa | 0 mm | - | 474 W/m² | - |
| 1787497032 | 21.11° C | 66% | 1020.7 hPa | 0 mm | - | 435 W/m² | - |
| 1787496732 | 20.56° C | 65% | 1020.8 hPa | 0 mm | - | 416 W/m² | - |
| 1787496426 | 20° C | 68% | 1020.9 hPa | 0 mm | - | 396 W/m² | - |
| 1787496122 | 19.44° C | 71% | 1021.1 hPa | 0 mm | - | 391 W/m² | - |
| 1787495816 | 19.44° C | 71% | 1020.7 hPa | 0 mm | - | 370 W/m² | - |
| 1787495512 | 19.44° C | 71% | 1021 hPa | 0 mm | - | 373 W/m² | - |
| 1787495208 | 19.44° C | 71% | 1020.8 hPa | 0 mm | - | 331 W/m² | - |
| 1787494904 | 18.89° C | 72% | 1020.8 hPa | 0 mm | - | 322 W/m² | - |
| 1787494604 | 19.44° C | 71% | 1020.9 hPa | 0 mm | - | 307 W/m² | - |
| 1787494304 | 20° C | 71% | 1020.8 hPa | 0 mm | - | 286 W/m² | - |
| 1787494000 | 19.44° C | 71% | 1020.6 hPa | 0 mm | - | 275 W/m² | - |
| 1787493697 | 18.89° C | 74% | 1020.7 hPa | 0 mm | - | 281 W/m² | - |
| 1787493396 | 18.33° C | 75% | 1020.7 hPa | 0 mm | - | 250 W/m² | - |
| 1787493093 | 17.78° C | 75% | 1020.6 hPa | 0 mm | - | 229 W/m² | - |
| 1787492787 | 17.22° C | 78% | 1020.7 hPa | 0 mm | - | 225 W/m² | - |
| 1787492484 | 16.67° C | 79% | 1020.7 hPa | 0 mm | - | 199 W/m² | - |
| 1787492179 | 16.67° C | 81% | 1020.5 hPa | 0 mm | - | 179 W/m² | - |
| 1787491874 | 15.56° C | 83% | 1020.8 hPa | 0 mm | - | 158 W/m² | - |
| 1787491569 | 15.56° C | 84% | 1020.7 hPa | 0 mm | - | 154 W/m² | - |
| 1787491265 | 15° C | 85% | 1020.6 hPa | 0 mm | - | 109 W/m² | - |
| 1787490960 | 15° C | 86% | 1020.3 hPa | 0 mm | - | 93 W/m² | - |
| 1787490655 | 14.44° C | 88% | 1020.6 hPa | 0 mm | - | 54 W/m² | - |
| 1787490355 | 14.44° C | 91% | 1020.3 hPa | 0 mm | - | 59 W/m² | - |
* Rain latest hour (hover to see other rain measurements)
** Current wind speed in m/s (hover to see current wind gust speed)